Home > Time Zones > World Clock > Weather > Japan > Osaka > Past weeks

Flag for Japan Weather past 2 weeks in Osaka, Japan

Now
46 °F

Partly cloudy.


Feels Like: 39 °F
Forecast: 36 / 50 °F
Wind: 17 mph from West

Location: Kansai International Airport

Current Time: Mar 4, 2015 at 3:56:54 AM

Latest Report: Mar 4, 2015 at 3:30 AM


Visibility: N/A

Pressure: 29.74 "Hg

Humidity: 87%

Dew point: 43 °F

Location of OsakaLocation

Historic Weather in Osaka — Graph

°F

Osaka temperature yesterday

Maximum temperature yesterday: 55 °F (at 5:30 PM)
Minimum temperature yesterday: 39 °F (at 3:30 AM)
Average temperature yesterday: 47 °F

Past Weeks' High & Low Weather Summary

 TemperatureHumidityPressure
High61 °F (Feb 22, 8:50 PM)94% (Feb 23, 3:30 AM)30.36 "Hg (Feb 23, 3:30 AM)
Low36 °F (Feb 21, 4:30 AM)34% (Feb 20, 3:00 PM)29.62 "Hg (Mar 3, 11:30 PM)
Average47 °F66%30.04 "Hg
* Reported Feb 17 2:00 AM — Mar 4 2:30 AM, Osaka, Weather by CustomWeather, © 2015

Note: Actual official high and low records may vary slightly from our data, if they occured in-between our weather recording intervals... More about our weather records

Advertising

Osaka weather history for previous 24 hours

 ConditionsComfort  
Time TempWeatherWind HumidityBarometerVisibility
2:30 AM
Wed, Mar 4
48 °FSprinkles. Partly cloudy.13 mph87%29.71 "Hg5 mi
2:00 AM48 °FSprinkles. Fog.21 mph94%29.71 "Hg2 mi
1:30 AM48 °FSprinkles. Fog.16 mph94%29.68 "Hg2 mi
1:00 AM48 °FSprinkles. Fog.16 mph94%29.65 "Hg2 mi
12:30 AM48 °FRain showers. Fog.16 mph87%29.62 "Hg3 mi
12:00 AM48 °FLight rain. Partly cloudy.17 mph87%29.62 "Hg5 mi
11:30 PM
Tue, Mar 3
48 °FRain. Partly cloudy.18 mph87%29.62 "Hg5 mi
11:00 PM48 °FRain. Partly cloudy.18 mph87%29.65 "Hg4 mi
10:30 PM48 °FLight rain. Partly cloudy.15 mph87%29.71 "Hg5 mi
10:00 PM48 °FLight rain. Partly cloudy.15 mph87%29.71 "Hg5 mi
9:30 PM48 °FLight rain. Partly cloudy.13 mph87%29.71 "HgN/A
9:00 PM50 °FLight rain. Partly cloudy.8 mph88%29.74 "HgN/A
8:30 PM50 °FLight rain. Partly cloudy.6 mph88%29.74 "HgN/A
8:00 PM50 °FLight rain. Partly cloudy.9 mph82%29.77 "HgN/A
7:30 PM54 °FLight rain. Partly cloudy.8 mph67%29.77 "HgN/A
7:00 PM55 °FLight rain. Partly cloudy.9 mph63%29.77 "HgN/A
6:30 PM55 °FLight rain. Partly cloudy.12 mph59%29.80 "HgN/A
6:00 PM55 °FLight rain. Partly cloudy.7 mph51%29.80 "HgN/A
5:30 PM55 °FScattered showers. Broken clouds.5 mph51%29.80 "HgN/A
5:00 PM54 °FScattered showers. Broken clouds.5 mph54%29.80 "HgN/A
4:30 PM54 °FBroken clouds.5 mph58%29.80 "HgN/A
4:00 PM54 °FBroken clouds.6 mph63%29.83 "HgN/A
3:30 PM54 °FScattered showers. Broken clouds.7 mph63%29.86 "HgN/A
3:00 PM52 °FBroken clouds.7 mph67%29.89 "HgN/A
2:30 PM50 °FBroken clouds.8 mph71%29.89 "HgN/A
2:00 PM50 °FBroken clouds.13 mph62%29.92 "HgN/A
1:30 PM50 °FPartly sunny.13 mph58%29.98 "HgN/A
1:00 PM50 °FBroken clouds.10 mph58%29.98 "HgN/A
12:30 PM50 °FBroken clouds.10 mph54%29.98 "HgN/A
11:30 AM48 °FBroken clouds.7 mph62%30.04 "HgN/A
11:00 AM45 °FBroken clouds.7 mph71%30.07 "HgN/A
10:30 AM45 °FBroken clouds.8 mph71%30.09 "HgN/A
10:00 AM45 °FBroken clouds.7 mph71%30.12 "HgN/A
9:30 AM45 °FPartly sunny.6 mph71%30.09 "HgN/A
9:00 AM43 °FBroken clouds.7 mph71%30.09 "HgN/A
8:30 AM41 °FBroken clouds.8 mph76%30.09 "HgN/A
8:00 AM41 °FBroken clouds.6 mph76%30.09 "HgN/A
7:30 AM41 °FBroken clouds.3 mph70%30.09 "HgN/A
7:00 AM39 °FPartly sunny.3 mph81%30.09 "HgN/A
6:30 AM41 °FPartly sunny.5 mph76%30.07 "HgN/A
6:00 AM41 °FPassing clouds.9 mph70%30.09 "HgN/A
5:30 AM39 °FPartly cloudy.7 mph81%30.07 "HgN/A
5:00 AM39 °FPassing clouds.8 mph75%30.07 "HgN/A
4:30 AM39 °FPassing clouds.8 mph75%30.04 "HgN/A
4:00 AM41 °FPassing clouds.8 mph76%30.07 "HgN/A
3:30 AM39 °FPassing clouds.8 mph75%30.07 "HgN/A
3:00 AM41 °FPassing clouds.8 mph70%30.07 "HgN/A
Weather by CustomWeather, © 2015

See weather overviewHow to use our weather pages